sat.trackr.live / text

‹ back to catalog

STARLINK-31467

NORAD 59235 · 2024-049E

PAYLOAD ACTIVE UNKNOWN

§ Identity

Operator
Country
US
Launch date
2024-03-16
Launch site
AFETR
Launch vehicle
Mass (kg)
RCS (m²)

Purposes: comms

External: N2YO · Heavens-Above · Gunter

§ Orbital elements

Epoch: 2026-05-25T04:09:37.249056Z

Period
94.27 min
Inclination
43.0017°
Eccentricity
0.0000710
Mean motion
15.27573627 rev/d
Perigee alt
482.6 km
Apogee alt
483.6 km
Semi-major
6,861.2 km
B*
2.1802e-5
RAAN
71.5661°
Arg perigee
270.0979°
Mean anomaly
89.9791°
Rev number
12,410

§ Raw data

STARLINK-314671 59235U 24049E   26145.17334779  .00000338  00000+0  21802-4 0  99922 59235  43.0017  71.5661 0000710 270.0979  89.9791 15.27573627124105

JSON: /api/v1/satellites/59235 · /tle

For live sub-satellite position, see the globe view (requires WebGL).

§ Visibility from observer

Set your observer location to see the next 7 days of passes ≥ 10°. The values pass through the URL so the page stays shareable.

No JS? Fill the form by hand. The geolocation button needs JavaScript.